Flag for Hungary Weather past 2 weeks in Szeged, Hungary

Now
60 °F

Passing clouds.


Feels Like: 60 °F
Forecast: 59 / 83 °F
Wind: No wind

Location: Szeged

Current Time: Jul 2, 2015 at 1:46:24 AM

Latest Report: Jul 2, 2015 at 1:00 AM


Visibility: 16 mi

Pressure: 30.19 "Hg

Humidity: 92%

Dew point: 58 °F

Location of SzegedLocation

Historic Weather in Szeged — Graph

°F

Szeged temperature yesterday

Maximum temperature yesterday: 82 °F (at 6:00 PM)
Minimum temperature yesterday: 55 °F (at 4:00 AM)
Average temperature yesterday: 70 °F

Past Weeks' High & Low Weather Summary

 TemperatureHumidityPressure
High82 °F (Jul 1, 6:00 PM)96% (Jun 30, 5:00 AM)30.19 "Hg (Jun 30, 5:00 AM)
Low45 °F (Jun 22, 5:00 AM)35% (Jun 22, 2:00 PM)29.83 "Hg (Jun 19, 3:00 PM)
Average64 °F68%30.02 "Hg
* Reported Midnight between Jun 16 and Jun 17 — Midnight between Jul 1 and Jul 2, Szeged, Weather by CustomWeather, © 2015

Note: Actual official high and low records may vary slightly from our data, if they occured in-between our weather recording intervals... More about our weather records

Advertising

Szeged weather history for previous 24 hours

 ConditionsComfort  
Time TempWeatherWind HumidityBarometerVisibility
12:00 AM
Thu, Jul 2
62 °FClear.1 mph89%30.19 "Hg16 mi
11:00 PM
Wed, Jul 1
63 °FPassing clouds.1 mph88%30.18 "Hg14 mi
10:00 PM66 °FPassing clouds.1 mph84%30.18 "Hg16 mi
9:00 PM70 °FPassing clouds.1 mph75%30.16 "Hg16 mi
8:00 PM77 °FPassing clouds.2 mph50%30.14 "Hg25 mi
7:00 PM80 °FPassing clouds.3 mph39%30.14 "Hg31 mi
6:00 PM82 °FPassing clouds.1 mph43%30.13 "Hg31 mi
5:00 PM82 °FScattered clouds.3 mph41%30.14 "Hg31 mi
4:00 PM82 °FScattered clouds.3 mph42%30.14 "Hg25 mi
3:00 PM82 °FPartly sunny.3 mph47%30.15 "Hg25 mi
2:00 PM81 °FScattered clouds.2 mph36%30.16 "Hg25 mi
1:00 PM80 °FScattered clouds.2 mph39%30.18 "Hg22 mi
12:00 PM79 °FPassing clouds.2 mph43%30.18 "Hg19 mi
11:00 AM78 °FPassing clouds.2 mph43%30.18 "Hg19 mi
10:00 AM77 °FSunny.2 mph51%30.18 "Hg19 mi
9:00 AM74 °FSunny.2 mph59%30.17 "Hg19 mi
8:00 AM69 °FSunny.1 mph72%30.16 "Hg11 mi
7:00 AM64 °FSunny.2 mph85%30.16 "Hg9 mi
6:00 AM55 °FSunny.No wind96%30.15 "Hg9 mi
5:00 AM55 °FPassing clouds.No wind95%30.14 "Hg9 mi
4:00 AM55 °FPassing clouds.No wind95%30.14 "Hg12 mi
3:00 AM56 °FPassing clouds.No wind94%30.14 "Hg12 mi
2:00 AM57 °FPassing clouds.1 mph94%30.14 "Hg12 mi
1:00 AM58 °FPassing clouds.1 mph94%30.14 "Hg12 mi
Weather by CustomWeather, © 2015

See weather overviewHow to use our weather pages